Location: Rounton
(54.4000°N, 1.3500°W)
Time: 08:04:08
(UTC+00:00)

Vanguard 1 - Pass Details

Date: 03 December 2021
Orbit: 652 x 3830 km, 34.2° (Epoch: 16 January)

Event Time Altitude Azimuth Distance (km) Brightness Sun altitude
Rises 00:08:23 0° 222° (SW) 7,497 - -57.6°
Reaches altitude 10° 00:13:55 10° 214° (SW) 6,720 - -57.5°
Maximum altitude 00:33:02 35° 159° (SSE) 5,012 - -56.9°
Exits shadow 00:43:50 23° 118° (ESE) 5,336 13.6 -56.4°
Drops below altitude 10° 00:49:53 10° 104° (ESE) 5,981 14.0 -56.1°
Sets 00:54:23 0° 96° (E) 6,626 14.4 -55.8°
